Location: Fort Worth, Tx
(32.7431°N, 97.3695°W)
Time: 04:44:10
(UTC-05:00)

Tiros 1 - Pass Details

Date: 15 November 2024
Orbit: 622 x 653 km, 48.4° (Epoch: 05 December)

Event Time Altitude Azimuth Distance (km) Brightness Sun altitude
Rises 20:08:59 0° 304° (NW) 2,955 11.2 -21.3°
Reaches altitude 10° 20:12:59 10° 337° (NNW) 2,052 9.9 -22.1°
Maximum altitude 20:14:38 12° 358° (N) 1,945 9.5 -22.4°
Enters shadow 20:15:01 12° 3° (N) 1,951 9.5 -22.5°
